www.pogodaiklimat.ru

Погода и климат >> Архив погоды >> Индия >> Джаркханд >> Далтонгандж


ПОГОДА в Далтонгандже

  • Прогноз погоды в Далтонгандже
  • Монитор погоды в Далтонгандже

АРХИВ ПОГОДЫ в Далтонгандже

Время (UTC), дата Ветер
(напр.,м/с)
 
Видим.   Явления Облачность Т
(С)
Тd
(С)
f
(%)
Тe
(С)
Тes
(С)
Комфортность P
(гПа)
Po
(гПа)
Тmin
(С)
Tmax
(С)
R
(мм)
R24
(мм)
S
(см)
18 14.09 штиль 0 2000 м мгла 6/3 600 м
[Sc Ac trans]
+28.2 +25.7 86 +42 +42 опасность
перегрева
1005.9 981.0
21 14.09 штиль 0 2000 м мгла 6/3 600 м
[Sc Ac trans]
+27.6 +25.2 87 +40 +40 очень
душно
1005.0 980.1
00 15.09 штиль 0 2000 м мгла 8/0
[Ac trans]
+27.0 +25.6 92 +40 +40 очень
душно
1004.8 979.8
03 15.09 штиль 0 4000 м мгла 3/0
[Ac trans]
+28.2 +25.4 85 +41 +50 опасность
перегрева
1006.1 981.2 +25.8
06 15.09 штиль 0 4000 м мгла 8/8 600 м
[Sc diur, vesp]
+33.0 +25.1 63 +47 +52 опасность
перегрева
1005.3 980.8
09 15.09 штиль 0 4000 м мгла 9/4 600 м
[Sc diur, vesp Ac trans]
+32.0 +25.5 69 +47 +51 опасность
перегрева
1002.6 978.1
12 15.09 штиль 0 4000 м мгла 5/1 600 м
[Sc Ac trans]
+31.8 +25.6 70 +47 +47 опасность
перегрева
1001.6 977.1 +34.0
15 15.09 штиль 0 2000 м мгла 5/1 600 м
[Sc Ac trans]
+30.0 +26.7 83 +47 +47 опасность
перегрева
1004.6 979.9
18 15.09 штиль 0 2000 м мгла 6/3 600 м
[Sc Ac trans]
+29.4 +26.6 85 +45 +45 опасность
перегрева
1005.0 980.2
21 15.09 штиль 0 2000 м мгла 6/3 600 м
[Sc Ac trans]
+28.8 +26.2 86 +44 +44 опасность
перегрева
1004.6 979.8
00 16.09 штиль 0 2000 м мгла 4/1 600 м
[Sc Ac trans]
+26.6 +25.2 92 +38 +38 очень
душно
1004.0 979.0
03 16.09 штиль 0 4000 м мгла 3/0
[Ac trans]
+28.4 +25.9 86 +42 +51 опасность
перегрева
1005.3 980.4 +25.5
06 16.09 штиль 0 4000 м мгла 5/1 600 м
[Sc Ac trans]
+32.8 +24.6 62 +46 +62 опасность
перегрева
1004.8 980.3
09 16.09 ЮЗ 1 4000 м мгла 5/0
[Ac trans]
+33.6 +23.6 56 +45 +54 опасность
перегрева
1000.4 976.1
12 16.09 штиль 0 4000 м мгла ясно +32.8 +24.9 63 +46 +46 опасность
перегрева
1000.3 975.9 +34.0
15 16.09 штиль 0 2000 м мгла 5/1 600 м
[Sc Ac trans]
+30.6 +26.4 78 +47 +47 опасность
перегрева
1002.6 978.0
18 16.09 штиль 0 2000 м мгла 5/3 600 м
[Sc Ac trans]
+29.6 +26.5 83 +45 +45 опасность
перегрева
1003.9 979.2
21 16.09 штиль 0 2000 м мгла 5/3 600 м
[Sc Ac trans]
+28.8 +26.3 86 +44 +44 опасность
перегрева
1003.2 978.4
00 17.09 штиль 0 2000 м мгла 3/0
[Ac trans]
+28.0 +26.6 92 +43 +43 опасность
перегрева
1003.4 978.5
03 17.09 штиль 0 2000 м мгла 4/0
[Ac trans]
+29.6 +25.4 78 +43 +51 опасность
перегрева
1005.5 980.7 +27.3
06 17.09 штиль 0 4000 м мгла 5/3 600 м
[Sc Ac trans]
+33.4 +24.9 61 +47 +61 опасность
перегрева
1004.5 980.1
09 17.09 штиль 0 2000 м слаб. дождь 10/4 600 м
[Sc As op]
+33.0 +26.3 68 +49 +51 опасность
перегрева
1001.6 977.2 0.0
12 17.09 СВ 1 2000 м гроза, ливневой дождь 9/4 600 м
[Cb calv Ac trans]
+25.8 +24.6 93 +36 +36 очень
душно
1003.6 978.6 +34.2 34
15 17.09 штиль 0 2000 м слаб. дождь {гроза} 9/4 540 м
[Sc Ac trans]
+26.4 +25.3 94 +38 +38 очень
душно
1006.6 981.5 38
18 17.09 штиль 0 2000 м мгла {дождь} 9/4 540 м
[Sc Ac trans]
+25.4 +24.5 95 +36 +36 очень
душно
1007.3 982.1 39
21 17.09 штиль 0 2000 м мгла 9/4 540 м
[Sc Ac trans]
+25.2 +24.6 96 +35 +35 очень
душно
1006.4 981.2 40
00 18.09 штиль 0 2000 м мгла {дождь} 9/4 600 м
[Sc Ac trans]
+25.6 +25.0 96 +36 +36 очень
душно
1006.9 981.8 40
03 18.09 штиль 0 2000 м мгла 9/4 600 м
[Sc Ac trans]
+27.2 +25.8 92 +40 +43 очень
душно
1009.3 984.2 +25.1 40
06 18.09 В 1 4000 м мгла 6/3 600 м
[Sc Ac trans]
+31.4 +24.9 68 +45 +56 опасность
перегрева
1009.4 984.7
09 18.09 В 1 4000 м мгла 5/4 600 м
[Sc diur, vesp Ac trans]
+32.0 +24.6 65 +45 +52 опасность
перегрева
1006.3 981.7
12 18.09 СВ 1 4000 м мгла 5/1 600 м
[Sc Ac trans]
+31.0 +25.4 72 +45 +45 опасность
перегрева
1006.2 981.5 +32.5
15 18.09 В 1 2000 м мгла 5/1 600 м
[Sc Ac trans]
+29.0 +26.2 85 +44 +44 опасность
перегрева
1009.0 984.1
18 18.09 штиль 0 2000 м мгла 3/0 600 м
[Ac trans]
+27.6 +24.7 84 +39 +39 очень
душно
1009.2 984.2
21 18.09 штиль 0 2000 м мгла 4/0 600 м
[Ac trans]
+27.0 +24.4 86 +38 +38 очень
душно
1008.1 983.0
00 19.09 штиль 0 2000 м мгла 3/0
[Ac trans]
+25.6 +24.4 93 +36 +36 очень
душно
1009.0 983.8
03 19.09 штиль 0 4000 м мгла 3/0
[Ac trans]
+27.2 +24.6 86 +39 +47 очень
душно
1010.8 985.7 +24.9
06 19.09 штиль 0 4000 м мгла 6/3 600 м
[Sc Ac trans]
+31.2 +24.7 68 +44 +57 опасность
перегрева
1010.2 985.4
09 19.09 штиль 0 4000 м мгла 9/4 600 м
[Sc diur, vesp Ac trans]
+31.0 +26.3 76 +47 +51 опасность
перегрева
1006.7 982.0
12 19.09 СВ 2 4000 м мгла 5/1 600 м
[Sc Ac trans]
+30.6 +26.4 78 +47 +47 опасность
перегрева
1006.0 981.3 +32.1
15 19.09 штиль 0 2000 м мгла 3/0 600 м
[Ac trans]
+28.4 +25.6 85 +42 +42 опасность
перегрева
1008.8 983.8
18 19.09 штиль 0 2000 м мгла 3/0
[Ac trans]
+27.4 +25.1 87 +39 +39 очень
душно
1008.8 983.8
21 19.09 штиль 0 2000 м мгла 4/0
[Ac trans]
+26.8 +24.8 89 +38 +38 очень
душно
1007.5 982.4
00 20.09 штиль 0 2000 м мгла 3/0
[Ac trans]
+26.2 +24.6 91 +37 +37 очень
душно
1008.2 983.1
03 20.09 штиль 0 4000 м мгла ясно +27.6 +25.3 87 +40 +50 очень
душно
1010.0 985.0 +25.4
06 20.09 штиль 0 4000 м мгла 4/0
[Ac trans]
+32.4 +24.4 63 +45 +64 опасность
перегрева
1009.0 984.4
09 20.09 штиль 0 4000 м мгла 4/4 600 м
[Sc diur, vesp]
+32.0 +25.2 67 +46 +55 опасность
перегрева
1005.0 980.4
12 20.09 В 1 2000 м мгла 9/4 600 м
[Sc Ac trans]
+29.0 +24.4 76 +41 +41 опасность
перегрева
1004.9 980.1 +33.5
15 20.09 В 1 2000 м зарница {гроза} 8/4 600 м
[Cb calv Ac trans]
+27.8 +24.6 83 +39 +39 очень
душно
1007.6 982.6
18 20.09 штиль 0 2000 м мгла {гроза} 6/3 600 м
[Sc Ac trans]
+27.0 +24.4 86 +38 +38 очень
душно
1007.2 982.2
21 20.09 штиль 0 2000 м мгла 6/3 600 м
[Sc Ac trans]
+26.6 +24.3 87 +37 +37 очень
душно
1006.3 981.3
00 21.09 штиль 0 2000 м мгла 3/0
[Ac trans]
+26.0 +24.9 94 +37 +37 очень
душно
1007.7 982.6
03 21.09 штиль 0 4000 м мгла ясно +27.6 +25.5 88 +40 +50 очень
душно
1009.6 984.6 +25.5
06 21.09 СВ 1 4000 м мгла 5/1 600 м
[Sc Ac trans]
+32.2 +25.5 68 +47 +61 опасность
перегрева
1007.9 983.3
09 21.09 СЗ 1 4000 м мгла 6/5 600 м
[Sc diur, vesp Ac trans]
+33.2 +25.3 63 +47 +53 опасность
перегрева
1003.5 979.1
12 21.09 СВ 1 2000 м гроза без осадков 6/3 600 м
[Cb calv Ac trans]
+31.8 +25.3 69 +46 +46 опасность
перегрева
1004.1 979.5 +33.8

 

Местоположение метеостанции Далтонгандж (Джаркханд, Индия): широта 24.05 долгота 84.07 высота над уровнем моря 221 м.

В архиве по умолчанию представлена погода в Далтонгандже за последнюю неделю. Архивные данные за месяц целиком и за предыдущие месяцы, начиная с января 2011 года, Вы можете получить, выбрав интересующий диапазон дат из раскрывающегося списка и нажав кнопку "Ввод!".


*Определитесь, кто Вы:
робот инопланетянин человек

Внимание! Время в таблицах - всемирное. Для получения местного времени необходимо прибавить поправку, которая равна 5.5 ч.

Смотрите также архив погоды в соседних городах и на ближайших метеорологических станциях:

Погода в Дехри (Бихар, Индия) (97 км)
Погода в Гае (Бихар, Индия) (118 км)
Погода в Амбикапуре (Чхаттисгарх, Индия) (129 км)
Погода в Ранчи (Джаркханд, Индия) (151 км)
Погода в Гхазипуре (Уттар-Прадеш, Индия) (159 км)
Погода в Варанаси (Уттар-Прадеш, Индия) (175 км)
Погода в Варанаси аэропорту (Уттар-Прадеш, Индия) (198 км)
Погода в Патне (Бихар, Индия) (201 км)
Погода в Чхапре (Бихар, Индия) (204 км)
Погода в Сундаргархе (Орисса, Индия) (215 км)

Пояснения к столбцам:

Ветер - указаны скорость ветра в м/с - средняя за 10 мин, порывы в срок и между сроками (в фигурных скобках) и направление, откуда дует ветер: С - северный, СВ - северо-восточный, В - восточный, ЮВ - юго-восточный, Ю - южный, ЮЗ - юго-западный, З - западный, СЗ - северо-западный.
Видимость - горизонтальная дальность видимости в метрах или километрах. При видимости от 1 до 10 км при отсутствии осадков обычно наблюдается дымка, при ухудшении видимости до 1 км и менее - туман. В сухую погоду видимость может ухудшаться дымом, пылью или мглою.
Явления - указаны атмосферные явления, наблюдавшиеся в срок или в последний час перед сроком; фигурными скобками обозначены явления, наблюдавшиеся между сроками (за 1-3 часа до срока); квадратными скобками обозначены град или гололедные отложения с указанием их диаметра в мм.
Облачность - указаны через наклонную черту общая и нижняя облачность в баллах и высота нижней границы облаков в метрах; квадратными скобками обозначены формы облаков: Ci - перистые, Cs - перисто-слоистые, Cc - перисто-кучевые, Ac - высококучевые, As - высокослоистые, Sc - слоисто-кучевые, Ns - слоисто-дождевые, Cu - кучевые, Cb - кучево-дождевые. Подробнее классификацию облаков см. в Атласе облаков (PDF).
T - Температура воздуха - температура, измеренная на высоте 2 м над землей.
Td - Температура точки росы - температура, при понижении до которой содержащийся в воздухе водяной пар достигнет насыщения.
f - Относительная влажность воздуха - влажноcть воздуха, измеренная на высоте 2 м над землей.
Te - Эффективная температура - температура, которую ощущает одетый по сезону человек в тени. Характеристика душности погоды. При расчете учитывается влияние влажности воздуха и скорости ветра на теплоощущения человека.
Tes - Эффективная температура на солнце - температура, которую ощущает человек, с поправкой на солнечный нагрев. Характеристика знойности погоды. Зависит от высоты солнца над горизонтом, облачности и скорости ветра. Ночью, в пасмурную погоду, а также при ветре 12 м/с и более поправка равна нулю.
P - Атмосферное давление - приведенное к уровню моря атмосферное давление.
Po - Атмосферное давление - измеренное на уровне метеостанции атмосферное давление.
Tmin - Минимальная температура - минимум температуры воздуха на высоте 2 м над землей.
Tmax - Максимальная температура - максимум температуры воздуха на высоте 2 м над землей.
R - Количество осадков - Количество выпавших осадков за период времени, мм. При наведении курсора мыши на число - период времени, за который выпало указанное количество осадков.
R24 - Количество осадков - Количество выпавших осадков за 24 часа, мм.
S - Снежный покров - Высота снежного покрова, см. При наведении курсора мыши на число - состояние снежного покрова и степень покрытия местности в баллах.